This is the latest recevied weather packets stored in our database for station/object K2ATL. If no packets are shown the sender has not sent any weather packets the latest 10 day(s).
| Time | Temp. | Humidity | Pressure | Rain* | Wind** | Luminosity | Snow |
|---|---|---|---|---|---|---|---|
| 1787591615 | 25° C | 68% | 1103.7 hPa | 0 mm | - | 908 W/m² | - |
| 1787591311 | 24.44° C | 53% | 1103.7 hPa | 0 mm | - | 908 W/m² | - |
| 1787591006 | 25° C | 55% | 1103.6 hPa | 0 mm | - | 905 W/m² | - |
| 1787590702 | 24.44° C | 62% | 1103.7 hPa | 0 mm | - | 898 W/m² | - |
| 1787590397 | 23.89° C | 56% | 1103.7 hPa | 0 mm | - | 891 W/m² | - |
| 1787590093 | 24.44° C | 62% | 1103.5 hPa | 0 mm | - | 889 W/m² | - |
| 1787589788 | 23.89° C | 58% | 1103.6 hPa | 0 mm | - | 877 W/m² | - |
| 1787589483 | 24.44° C | 60% | 1103.6 hPa | 0 mm | - | 873 W/m² | - |
| 1787589178 | 23.89° C | 67% | 1103.5 hPa | 0 mm | - | 864 W/m² | - |
| 1787588873 | 23.89° C | 64% | 1103.7 hPa | 0 mm | - | 854 W/m² | - |
| 1787588570 | 23.33° C | 62% | 1103.6 hPa | 0 mm | - | 848 W/m² | - |
| 1787588265 | 23.33° C | 60% | 1103.7 hPa | 0 mm | - | 840 W/m² | - |
| 1787587961 | 23.33° C | 62% | 1103.8 hPa | 0 mm | - | 832 W/m² | - |
| 1787587656 | 22.78° C | 73% | 1103.7 hPa | 0 mm | - | 820 W/m² | - |
| 1787587356 | 22.78° C | 65% | 1103.8 hPa | 0 mm | - | 811 W/m² | - |
| 1787587050 | 23.33° C | 64% | 1103.7 hPa | 0 mm | - | 803 W/m² | - |
| 1787586745 | 22.78° C | 62% | 1103.7 hPa | 0 mm | - | 789 W/m² | - |
| 1787586440 | 22.78° C | 61% | 1103.8 hPa | 0 mm | - | 779 W/m² | - |
| 1787586137 | 22.22° C | 63% | 1103.6 hPa | 0 mm | - | 764 W/m² | - |
| 1787585832 | 22.22° C | 68% | 1103.6 hPa | 0 mm | - | 754 W/m² | - |
| 1787585527 | 21.67° C | 63% | 1103.6 hPa | 0 mm | - | 742 W/m² | - |
| 1787585222 | 22.78° C | 63% | 1103.6 hPa | 0 mm | - | 726 W/m² | - |
| 1787584916 | 22.78° C | 62% | 1103.8 hPa | 0 mm | - | 715 W/m² | - |
| 1787584616 | 22.22° C | 63% | 1103.8 hPa | 0 mm | - | 701 W/m² | - |
| 1787584315 | 22.22° C | 63% | 1103.7 hPa | 0 mm | - | 686 W/m² | - |
* Rain latest hour (hover to see other rain measurements)
** Current wind speed in m/s (hover to see current wind gust speed)